"2009-08-27 00:00:00",1186849,4.763,15.9,1.621,0.601,18.56,108.1683,20.19,21.24,32.66,0,110.8,13.23,21.01,337.9
"2009-08-27 00:00:30",1186850,4.358,13.03,2.695,0.553,18.85,108.1681,20.19,21.22,32.28,0,110.8,13.23,21.01,335.0
"2009-08-27 00:01:00",1186851,5.766,11.08,2.574,0.896,18.85,108.1611,20.17,21.2,31.69,0,110.8,13.23,21.00,333.1
"2009-08-27 00:01:30",1186852,8.1,17.41,2.966,0.329,18.64,108.1465,20.14,21.18,31.86,0,110.8,13.23,20.96,339.4
"2009-08-27 00:02:00",1186853,7.169,18.89,2.851,0.902,18.55,108.1364,20.11,21.17,32.44,0,110.8,13.23,20.93,340.9
"2009-08-27 00:02:30",1186854,5.832,9.41,4.05,0.58,18.74,108.1364,20.11,21.15,32.26,0,110.8,13.23,20.93,331.4
"2009-08-27 00:03:00",1186855,6.088,6.644,2.369,0.683,18.87,108.1336,20.1,21.13,31.78,0,110.8,13.23,20.92,328.6
"2009-08-27 00:03:30",1186856,8.45,11.88,5.187,0.838,19.06,108.1156,20.06,21.13,31.88,0,110.8,13.23,20.88,333.9
"2009-08-27 00:04:00",1186857,6.898,16.84,4.064,1.473,18.75,108.1026,20.02,21.09,32.42,0,110.8,13.23,20.84,338.8
"2009-08-27 00:04:30",1186858,6.544,16.06,5.048,1.599,18.61,108.1026,20.02,21.08,32.84,0,110.8,13.23,20.84,338.1
"2009-08-27 00:05:00",1186859,6.393,12.37,4.154,1.445,18.6,108.1026,20.02,21.06,33.17,0,110.8,13.23,20.84,334.4
"2009-08-27 00:05:30",1186860,7.218,18.09,2.465,0.951,18.81,108.1001,20.02,21.05,33.22,0,110.8,13.23,20.84,340.1
"2009-08-27 00:06:00",1186861,8.96,15.5,2.982,1.129,18.92,108.0891,19.99,21.06,32.76,0,110.8,13.23,20.81,337.5
"2009-08-27 00:06:30",1186862,7.299,19.05,4.144,0.864,18.71,108.0748,19.95,21.02,33.23,0,110.8,13.24,20.77,341.0
"2009-08-27 00:07:00",1186863,5.671,13.7,7.256,1.58,18.59,108.0694,19.94,21,33.43,0,110.8,13.24,20.76,335.7
"2009-08-27 00:07:30",1186864,6.019,15.78,2.86,1.109,18.62,108.0689,19.94,20.99,33.85,0,110.8,13.24,20.76,337.8
"2009-08-27 00:08:00",1186865,7.196,14.88,6.006,1.424,18.8,108.0689,19.94,20.98,33.51,0,110.8,13.24,20.76,336.9
"2009-08-27 00:08:30",1186866,6.177,12.9,2.359,0.686,18.81,108.0689,19.94,20.97,33.47,0,110.8,13.24,20.76,334.9
"2009-08-27 00:09:00",1186867,6.529,9.49,5.905,1.067,18.79,108.0613,19.92,20.96,33.68,0,110.8,13.24,20.74,331.5
"2009-08-27 00:09:30",1186868,7.519,1.662,5.689,1.375,18.72,108.0455,19.88,20.94,33.83,0,110.8,13.24,20.70,323.7
"2009-08-27 00:10:00",1186869,6.727,5.914,7.593,2.261,18.46,108.0374,19.86,20.93,34.73,0,110.8,13.24,20.68,327.9
"2009-08-27 00:10:30",1186870,7.313,357.9,4.69,1.198,18.46,108.0351,19.85,20.93,35.04,0,110.8,13.24,20.67,319.9
"2009-08-27 00:11:00",1186871,8.24,355.8,2.079,0.907,18.82,108.0351,19.85,20.92,34.23,0,110.8,13.24,20.67,317.8
"2009-08-27 00:11:30",1186872,9.12,352.7,1.842,0.82,19.09,108.0351,19.85,20.89,32.33,0,110.8,13.24,20.67,314.7
"2009-08-27 00:12:00",1186873,8.32,355.1,2.058,0.839,19.11,108.0351,19.85,20.89,31.52,0,110.8,13.24,20.67,317.1
"2009-08-27 00:12:30",1186874,8.09,355.8,2.219,0.809,18.68,108.0351,19.85,20.88,32.96,0,110.8,13.24,20.67,317.8
"2009-08-27 00:13:00",1186875,9.27,353.4,2.244,1.196,18.48,108.0388,19.86,20.89,34.26,0,110.8,13.24,20.68,315.4
"2009-08-27 00:13:30",1186876,9.39,352.6,2.192,1.279,18.74,108.0534,19.9,20.88,33.48,0,110.8,13.24,20.72,314.6
"2009-08-27 00:14:00",1186877,9.36,352.5,2.56,1.022,18.6,108.0686,19.94,20.9,33.2,0,110.8,13.24,20.76,314.5
"2009-08-27 00:14:30",1186878,10.34,351,2.542,0.914,19.19,108.0689,19.94,20.89,31.6,0,110.8,13.24,20.76,313.0
"2009-08-27 00:15:00",1186879,10.33,349.4,1.229,0.412,19.17,108.0725,19.95,20.91,30.87,0,110.8,13.24,20.77,311.4
"2009-08-27 00:15:30",1186880,9.35,352.3,1.974,0.774,18.77,108.0973,20.01,20.93,31.83,0,110.8,13.24,20.83,314.3
"2009-08-27 00:16:00",1186881,9.03,353,2.856,1.196,18.57,108.1068,20.03,20.95,32.58,0,110.8,13.24,20.86,315.0
"2009-08-27 00:16:30",1186882,9,352.6,2.572,1.121,18.69,108.1353,20.11,20.99,32.84,0,110.8,13.23,20.93,314.6
"2009-08-27 00:17:00",1186883,8.65,354.4,2.135,0.907,18.71,108.1431,20.13,21.01,32.51,0,110.8,13.23,20.95,316.4
"2009-08-27 00:17:30",1186884,7.67,355.9,1.88,0.602,18.81,108.1696,20.19,21.05,32.31,0,110.8,13.23,21.02,317.9
"2009-08-27 00:18:00",1186885,8.5,354.1,2.028,0.89,18.71,108.1786,20.22,21.08,32.37,0,110.8,13.23,21.04,316.1
"2009-08-27 00:18:30",1186886,9.95,351.6,2.922,1.29,18.6,108.2039,20.28,21.12,32.49,0,110.8,13.23,21.11,313.6
"2009-08-27 00:19:00",1186887,10.07,351.7,3.057,1.836,18.68,108.2059,20.29,21.16,32.81,0,110.8,13.23,21.11,313.7
"2009-08-27 00:19:30",1186888,11.24,350.1,0.604,0.252,18.99,108.2199,20.32,21.19,31.87,0,110.8,13.23,21.15,312.1
"2009-08-27 00:20:00",1186889,10.91,351,1.104,0.455,18.89,108.2377,20.37,21.19,31.77,0,110.8,13.23,21.19,313.0
"2009-08-27 00:20:30",1186890,10.57,350.4,1.005,0.288,19.09,108.2405,20.38,21.23,31.36,0,110.8,13.23,21.20,312.4
"2009-08-27 00:21:00",1186891,10,351.7,1.001,0.571,18.98,108.2647,20.44,21.25,31.24,0,110.8,13.23,21.26,313.7
"2009-08-27 00:21:30",1186892,9.43,352.9,1.227,0.271,19.08,108.2717,20.46,21.28,30.98,0,110.8,13.23,21.28,314.9
"2009-08-27 00:22:00",1186893,9.96,353,1.392,0.993,19.03,108.2931,20.51,21.33,30.95,0,110.8,13.23,21.34,315.0
"2009-08-27 00:22:30",1186894,9.47,353.1,1.596,0.932,18.92,108.3052,20.54,21.36,31.15,0,110.8,13.23,21.37,315.1
"2009-08-27 00:23:00",1186895,10.52,351,1.099,0.492,19.12,108.3153,20.57,21.4,30.53,0,110.8,13.23,21.39,313.0
"2009-08-27 00:23:30",1186896,11.38,348.9,1.073,0.265,18.81,108.339,20.63,21.42,31.14,0,110.8,13.23,21.45,310.9
"2009-08-27 00:24:00",1186897,10.38,351.6,1.12,0.679,19.01,108.339,20.63,21.46,31.19,0,110.8,13.23,21.45,313.6
"2009-08-27 00:24:30",1186898,10.41,351.8,1.217,0.714,19.12,108.3513,20.66,21.48,30.6,0,110.8,13.23,21.49,313.8
"2009-08-27 00:25:00",1186899,10.32,351.7,2.465,0.794,19.04,108.3719,20.71,21.51,30.72,0,110.8,13.23,21.54,313.7
"2009-08-27 00:25:30",1186900,10.97,349.2,2.017,0.593,18.98,108.3727,20.72,21.54,30.92,0,110.8,13.23,21.54,311.2
"2009-08-27 00:26:00",1186901,11.79,347.9,1.018,0.316,19.05,108.3753,20.72,21.58,30.99,0,110.8,13.23,21.55,309.9
"2009-08-27 00:26:30",1186902,10.61,351.3,2.017,0.899,19.23,108.3983,20.78,21.6,30.23,0,110.8,13.23,21.61,313.3
"2009-08-27 00:27:00",1186903,11.05,350.7,1.92,0.434,19.18,108.4065,20.8,21.62,30.19,0,110.8,13.23,21.63,312.7
"2009-08-27 00:27:30",1186904,11.43,349.1,1.456,0.292,19.22,108.4065,20.8,21.65,30.11,0,110.8,13.23,21.63,311.1
"2009-08-27 00:28:00",1186905,11.9,347.9,1.016,0.231,19.14,108.4231,20.85,21.67,29.93,0,110.8,13.23,21.67,309.9
"2009-08-27 00:28:30",1186906,11.94,348.3,0.926,0.196,19.23,108.4366,20.88,21.68,29.83,0,110.8,13.23,21.70,310.3
"2009-08-27 00:29:00",1186907,11.77,346.4,0.703,0.243,19.37,108.4378,20.88,21.72,29.1,0,110.8,13.23,21.71,308.4
"2009-08-27 00:29:30",1186908,11.53,345.6,0.725,0.12,19.32,108.4387,20.89,21.74,28.79,0,110.8,13.23,21.71,307.6
"2009-08-27 00:30:00",1186909,11.34,344.6,0.856,0.138,19.17,108.4504,20.92,21.77,29.07,0,110.9,13.23,21.74,306.6
"2009-08-27 00:30:30",1186910,11.4,343.4,0.892,0.091,19.22,108.4698,20.97,21.8,29.28,0,110.9,13.23,21.79,305.4
"2009-08-27 00:31:00",1186911,11.51,345.4,0.688,0.115,19.18,108.4685,20.96,21.82,29.04,0,110.9,13.23,21.79,307.4
"2009-08-27 00:31:30",1186912,11.32,345.8,0.671,0.097,19.17,108.474,20.98,21.85,28.99,0,110.9,13.23,21.80,307.8
"2009-08-27 00:32:00",1186913,11.26,345.7,0.854,0.107,19.25,108.4957,21.03,21.87,29.21,0,110.9,13.23,21.86,307.7
"2009-08-27 00:32:30",1186914,11.23,345.8,0.703,0.157,19.23,108.4998,21.04,21.89,28.79,0,110.9,13.23,21.87,307.8
"2009-08-27 00:33:00",1186915,11.62,346,0.564,0.1,19.08,108.4989,21.04,21.92,29.1,0,110.9,13.23,21.87,308.0
"2009-08-27 00:33:30",1186916,11.9,344.6,1.602,0.163,18.98,108.5177,21.09,21.95,29.53,0,110.9,13.23,21.91,306.6
"2009-08-27 00:34:00",1186917,11.51,342.3,0.824,0.161,18.94,108.5321,21.12,21.98,30.15,0,110.9,13.22,21.95,304.3
"2009-08-27 00:34:30",1186918,11.2,342.7,0.693,0.15,18.97,108.5305,21.12,22.01,30.21,0,110.9,13.22,21.95,304.7
"2009-08-27 00:35:00",1186919,11.04,342.7,0.753,0.114,19.08,108.5304,21.12,22.03,30.02,0,110.9,13.22,21.95,304.7
"2009-08-27 00:35:30",1186920,10.94,342.9,0.988,0.273,19.09,108.5413,21.15,22.04,29.97,0,110.9,13.22,21.97,304.9
"2009-08-27 00:36:00",1186921,11.06,343.6,1.158,0.172,19.18,108.5574,21.19,22.06,29.48,0,110.9,13.22,22.02,305.6
"2009-08-27 00:36:30",1186922,10.93,343,1.063,0.094,19.18,108.5594,21.2,22.07,29.28,0,110.9,13.22,22.02,305.0
"2009-08-27 00:37:00",1186923,10.98,343.7,0.773,0.132,19.21,108.5573,21.19,22.1,29.06,0,110.9,13.22,22.02,305.7
"2009-08-27 00:37:30",1186924,10.82,344.1,0.578,0.134,19.25,108.5539,21.18,22.12,28.88,0,110.9,13.22,22.01,306.1
"2009-08-27 00:38:00",1186925,10.64,342.8,0.621,0.115,19.26,108.5512,21.17,22.13,28.84,0,110.9,13.22,22.00,304.8
"2009-08-27 00:38:30",1186926,10.33,342.7,0.595,0.086,19.21,108.5601,21.2,22.15,28.67,0,110.9,13.22,22.02,304.7
"2009-08-27 00:39:00",1186927,10.19,343.3,0.887,0.05,19.27,108.5754,21.24,22.16,28.63,0,110.9,13.22,22.06,305.3
"2009-08-27 00:39:30",1186928,10.21,344.6,0.543,0.064,19.28,108.576,21.24,22.19,28.34,0,110.9,13.22,22.06,306.6
"2009-08-27 00:40:00",1186929,10.29,345.3,0.573,0.091,19.3,108.5754,21.24,22.2,28.33,0,110.9,13.23,22.06,307.3
"2009-08-27 00:40:30",1186930,10.12,344.4,0.572,0.095,19.35,108.5736,21.23,22.21,28.25,0,110.9,13.23,22.06,306.4
"2009-08-27 00:41:00",1186931,10.08,343.4,0.566,0.146,19.35,108.5752,21.24,22.22,28.21,0,110.9,13.23,22.06,305.4
"2009-08-27 00:41:30",1186932,9.85,343.6,0.626,0.068,19.31,108.5904,21.27,22.24,28.1,0,110.9,13.23,22.10,305.6
"2009-08-27 00:42:00",1186933,9.94,345.7,0.734,0.102,19.28,108.6013,21.3,22.24,28.18,0,110.9,13.23,22.13,307.7
"2009-08-27 00:42:30",1186934,10.41,344.1,1.174,0.178,19.12,108.6059,21.31,22.26,28.62,0,110.9,13.23,22.14,306.1
"2009-08-27 00:43:00",1186935,10.65,342.8,0.624,0.105,19.2,108.6061,21.32,22.28,28.85,0,110.9,13.23,22.14,304.8
"2009-08-27 00:43:30",1186936,10.87,342.2,0.831,0.11,19.18,108.6061,21.32,22.3,28.95,0,110.9,13.23,22.14,304.2
"2009-08-27 00:44:00",1186937,10.69,343,0.717,0.086,19.2,108.6061,21.32,22.31,29.26,0,110.9,13.23,22.14,305.0
"2009-08-27 00:44:30",1186938,10.85,341.7,0.965,0.234,19.13,108.6067,21.32,22.32,29.49,0,110.9,13.23,22.14,303.7
"2009-08-27 00:45:00",1186939,10.57,340,2.225,0.414,19.19,108.6084,21.32,22.32,29.65,0,110.9,13.23,22.15,302.0
"2009-08-27 00:45:30",1186940,10.41,339.8,1.087,0.311,19.22,108.6073,21.32,22.34,30.02,0,110.9,13.23,22.14,301.8
"2009-08-27 00:46:00",1186941,10.3,336.2,3.273,0.469,19.18,108.6064,21.32,22.34,29.95,0,110.9,13.23,22.14,298.2
"2009-08-27 00:46:30",1186942,9.73,337.3,2.732,0.215,19.43,108.6061,21.32,22.35,29.8,0,110.9,13.23,22.14,299.3
"2009-08-27 00:47:00",1186943,9.19,331.3,3.495,0.743,19.13,108.6061,21.32,22.32,30.16,0,110.9,13.23,22.14,293.3
"2009-08-27 00:47:30",1186944,9,330,6.21,0.781,19.17,108.6056,21.31,22.33,31.72,0,110.9,13.23,22.14,292.0
"2009-08-27 00:48:00",1186945,10.01,341.5,1.493,0.284,19.55,108.5955,21.29,22.31,29.67,0,110.9,13.23,22.11,303.5
"2009-08-27 00:48:30",1186946,10.39,341.2,0.673,0.164,19.5,108.5772,21.24,22.31,29.19,0,110.9,13.23,22.07,303.2
"2009-08-27 00:49:00",1186947,10.86,341.1,0.804,0.243,19.47,108.5724,21.23,22.28,28.88,0,110.9,13.23,22.05,303.1
"2009-08-27 00:49:30",1186948,10.9,342.5,0.808,0.16,19.54,108.5724,21.23,22.27,28.87,0,110.9,13.23,22.05,304.5
"2009-08-27 00:50:00",1186949,11.02,343.9,0.594,0.137,19.58,108.5648,21.21,22.26,28.77,0,110.9,13.23,22.03,305.9
"2009-08-27 00:50:30",1186950,11.04,342.9,0.76,0.171,19.6,108.5443,21.16,22.22,28.68,0,110.9,13.22,21.98,304.9
"2009-08-27 00:51:00",1186951,10.91,341.7,0.601,0.142,19.62,108.5389,21.14,22.22,28.61,0,110.9,13.22,21.97,303.7
"2009-08-27 00:51:30",1186952,10.84,342.7,0.854,0.107,19.67,108.5386,21.14,22.19,28.56,0,110.9,13.22,21.97,304.7
"2009-08-27 00:52:00",1186953,10.86,342.4,1.052,0.151,19.67,108.5373,21.14,22.18,28.47,0,110.9,13.22,21.96,304.4
"2009-08-27 00:52:30",1186954,10.82,343.1,1.553,0.107,19.77,108.5167,21.09,22.16,28.36,0,110.9,13.22,21.91,305.1
"2009-08-27 00:53:00",1186955,10.53,342.4,1.504,0.222,19.77,108.5061,21.06,22.15,28.27,0,110.9,13.22,21.88,304.4
"2009-08-27 00:53:30",1186956,10.56,342.5,1.125,0.244,19.76,108.5067,21.06,22.13,28.26,0,110.9,13.22,21.89,304.5
"2009-08-27 00:54:00",1186957,10.06,341.9,0.886,0.172,19.74,108.5076,21.06,22.12,28.24,0,110.9,13.22,21.89,303.9
"2009-08-27 00:54:30",1186958,10.32,344.8,1.358,0.256,19.75,108.5075,21.06,22.08,28.38,0,110.9,13.22,21.89,306.8
"2009-08-27 00:55:00",1186959,10.57,343.5,0.592,0.126,19.62,108.4981,21.04,22.09,28.55,0,110.9,13.22,21.86,305.5
"2009-08-27 00:55:30",1186960,10.52,343,1.242,0.241,19.59,108.4847,21,22.08,28.88,0,110.9,13.22,21.83,305.0
"2009-08-27 00:56:00",1186961,10.51,341,1.946,0.374,19.62,108.4809,20.99,22.07,28.92,0,110.9,13.23,21.82,303.0
"2009-08-27 00:56:30",1186962,10.83,343.3,1.204,0.265,19.73,108.4818,21,22.04,28.71,0,110.8,13.23,21.82,305.3
"2009-08-27 00:57:00",1186963,11.12,341.1,0.989,0.236,19.6,108.483,21,22.05,28.9,0,110.9,13.23,21.82,303.1
"2009-08-27 00:57:30",1186964,10.9,340.6,1.008,0.243,19.62,108.4833,21,22.04,29.1,0,110.8,13.23,21.83,302.6
"2009-08-27 00:58:00",1186965,10.82,342.1,0.703,0.135,19.76,108.4834,21,22.02,28.72,0,110.8,13.23,21.83,304.1
"2009-08-27 00:58:30",1186966,10.76,341.6,0.831,0.177,19.73,108.4863,21.01,22.01,28.61,0,110.8,13.23,21.83,303.6
"2009-08-27 00:59:00",1186967,10.84,339.4,1.093,0.13,19.67,108.4813,20.99,22.01,29.04,0,110.8,13.23,21.82,301.4
"2009-08-27 00:59:30",1186968,10.92,337.2,0.86,0.185,19.61,108.476,20.98,21.99,29.31,0,110.8,13.23,21.81,299.2
"2009-08-27 01:00:00",1186969,11.48,336,0.93,0.196,19.59,108.463,20.95,21.98,29.46,0,110.8,13.23,21.77,298.0
"2009-08-27 01:00:30",1186970,11.46,333.4,0.732,0.075,19.62,108.4644,20.95,21.99,29.13,0,110.8,13.23,21.78,295.4
"2009-08-27 01:01:00",1186971,11.12,332.2,0.436,0.105,19.55,108.4597,20.94,21.97,29.34,0,110.8,13.23,21.76,294.2
"2009-08-27 01:01:30",1186972,10.96,332.9,0.535,0.074,19.52,108.4658,20.95,21.95,29.46,0,110.8,13.23,21.78,294.9
"2009-08-27 01:02:00",1186973,11.12,333.7,0.414,0.079,19.42,108.4648,20.95,21.96,29.47,0,110.8,13.23,21.78,295.7
"2009-08-27 01:02:30",1186974,10.89,334.2,0.592,0.256,19.38,108.4691,20.96,21.95,29.56,0,110.8,13.23,21.79,296.2
"2009-08-27 01:03:00",1186975,10.55,333.3,0.652,0.21,19.3,108.4676,20.96,21.93,29.85,0,110.8,13.23,21.78,295.3
"2009-08-27 01:03:30",1186976,10.54,334.2,0.647,0.217,19.34,108.4673,20.96,21.95,29.76,0,110.8,13.23,21.78,296.2
"2009-08-27 01:04:00",1186977,10.14,335.1,0.679,0.218,19.36,108.467,20.96,21.95,29.48,0,110.8,13.23,21.78,297.1
"2009-08-27 01:04:30",1186978,9.97,333.8,1.019,0.138,19.31,108.4679,20.96,21.93,29.5,0,110.8,13.23,21.79,295.8
"2009-08-27 01:05:00",1186979,9.68,332.7,0.73,0.101,19.29,108.47,20.97,21.94,29.44,0,110.8,13.23,21.79,294.7
"2009-08-27 01:05:30",1186980,9.72,333.4,0.569,0.141,19.27,108.47,20.97,21.94,29.49,0,110.8,13.23,21.79,295.4
"2009-08-27 01:06:00",1186981,9.82,331.5,1.397,0.144,19.21,108.4703,20.97,21.93,29.66,0,110.8,13.23,21.79,293.5
"2009-08-27 01:06:30",1186982,9.67,330.1,1.559,0.121,19.24,108.4697,20.96,21.93,29.74,0,110.8,13.23,21.79,292.1
"2009-08-27 01:07:00",1186983,9.84,332.2,1.182,0.135,19.24,108.4667,20.96,21.93,29.85,0,110.8,13.23,21.78,294.2
"2009-08-27 01:07:30",1186984,9.69,328.1,1.139,0.087,19.46,108.4697,20.96,21.93,29.81,0,110.8,13.23,21.79,290.1
"2009-08-27 01:08:00",1186985,9.61,327.5,0.854,0.124,19.62,108.4706,20.97,21.92,29.76,0,110.8,13.23,21.79,289.5
"2009-08-27 01:08:30",1186986,9.83,328.6,0.759,0.107,19.73,108.4719,20.97,21.92,29.61,0,110.8,13.23,21.80,290.6
"2009-08-27 01:09:00",1186987,9.57,327.1,0.57,0.042,19.81,108.4722,20.97,21.92,29.37,0,110.8,13.23,21.80,289.1
"2009-08-27 01:09:30",1186988,9.4,327.7,0.458,0.106,19.78,108.4731,20.97,21.92,29.19,0,110.8,13.23,21.80,289.7
"2009-08-27 01:10:00",1186989,9.2,327.6,0.318,0.09,19.87,108.474,20.98,21.92,29,0,110.8,13.23,21.80,289.6
"2009-08-27 01:10:30",1186990,9.3,327.7,0.366,0.11,19.85,108.4734,20.97,21.93,28.68,0,110.8,13.23,21.80,289.7
"2009-08-27 01:11:00",1186991,9.71,327.7,0.529,0.096,19.75,108.4737,20.98,21.93,28.33,0,110.8,13.23,21.80,289.7
"2009-08-27 01:11:30",1186992,9.77,327.9,0.502,0.07,19.51,108.4734,20.97,21.94,28.68,0,110.8,13.23,21.80,289.9
"2009-08-27 01:12:00",1186993,9.74,327.5,0.415,0.052,19.66,108.474,20.98,21.94,28.71,0,110.8,13.23,21.80,289.5
"2009-08-27 01:12:30",1186994,9.66,328.6,0.796,0.072,19.71,108.4734,20.97,21.94,28.35,0,110.8,13.23,21.80,290.6
"2009-08-27 01:13:00",1186995,9.71,328.4,0.709,0.229,19.52,108.474,20.98,21.94,28.79,0,110.8,13.23,21.80,290.4
"2009-08-27 01:13:30",1186996,9.87,327.7,0.901,0.127,19.46,108.474,20.98,21.94,29.18,0,110.8,13.23,21.80,289.7
"2009-08-27 01:14:00",1186997,10.06,327.5,0.896,0.147,19.52,108.474,20.98,21.94,29.16,0,110.8,13.23,21.80,289.5
"2009-08-27 01:14:30",1186998,10.24,327.5,0.374,0.069,19.55,108.474,20.98,21.94,29.07,0,110.8,13.23,21.80,289.5
"2009-08-27 01:15:00",1186999,9.98,326.7,0.782,0.149,19.51,108.474,20.98,21.95,28.92,0,110.8,13.23,21.80,288.7
"2009-08-27 01:15:30",1187000,10.1,327,0.698,0.093,19.52,108.474,20.98,21.95,28.84,0,110.8,13.23,21.80,289.0
"2009-08-27 01:16:00",1187001,9.94,324.8,1,0.149,19.51,108.474,20.98,21.95,28.68,0,110.8,13.23,21.80,286.8
"2009-08-27 01:16:30",1187002,9.63,325,0.709,0.191,19.42,108.474,20.98,21.96,28.62,0,110.8,13.23,21.80,287.0
"2009-08-27 01:17:00",1187003,9.32,325.4,0.856,0.064,19.37,108.474,20.98,21.95,28.47,0,110.8,13.23,21.80,287.4
"2009-08-27 01:17:30",1187004,9.46,327,1.239,0.198,19.49,108.474,20.98,21.94,28.5,0,110.8,13.23,21.80,289.0
"2009-08-27 01:18:00",1187005,9.39,327.9,1.234,0.141,19.59,108.474,20.98,21.95,27.78,0,110.8,13.23,21.80,289.9
"2009-08-27 01:18:30",1187006,9.36,327.1,1.654,0.142,19.5,108.474,20.98,21.95,27.86,0,110.8,13.23,21.80,289.1
"2009-08-27 01:19:00",1187007,9.51,327.6,1.162,0.209,19.58,108.474,20.98,21.94,27.52,0,110.8,13.23,21.80,289.6
"2009-08-27 01:19:30",1187008,9.23,326.2,0.897,0.228,19.48,108.474,20.98,21.95,27.67,0,110.8,13.23,21.80,288.2
"2009-08-27 01:20:00",1187009,9.42,328.4,0.97,0.229,19.5,108.474,20.98,21.95,27.75,0,110.8,13.24,21.80,290.4
"2009-08-27 01:20:30",1187010,9.56,329.1,1.161,0.21,19.63,108.474,20.98,21.94,27.25,0,110.8,13.23,21.80,291.1
"2009-08-27 01:21:00",1187011,9.01,327,0.948,0.094,19.44,108.474,20.98,21.96,27.73,0,110.8,13.23,21.80,289.0
"2009-08-27 01:21:30",1187012,9.06,326.8,1.384,0.096,19.34,108.474,20.98,21.96,28.08,0,110.8,13.23,21.80,288.8
"2009-08-27 01:22:00",1187013,8.79,325.1,1.227,0.116,19.23,108.474,20.98,21.96,28.49,0,110.8,13.23,21.80,287.1
"2009-08-27 01:22:30",1187014,8.59,323.2,0.645,0.058,19.23,108.474,20.98,21.99,28.99,0,110.8,13.23,21.80,285.2
"2009-08-27 01:23:00",1187015,8.38,322.2,0.399,0.086,19.24,108.4771,20.98,21.99,29.03,0,110.8,13.23,21.81,284.2
"2009-08-27 01:23:30",1187016,8.53,322.9,0.728,0.178,19.33,108.4872,21.01,21.99,28.98,0,110.8,13.24,21.84,284.9
"2009-08-27 01:24:00",1187017,8.97,322.1,0.463,0.124,19.36,108.492,21.02,21.98,28.75,0,110.8,13.23,21.85,284.1
"2009-08-27 01:24:30",1187018,8.91,323.5,1.02,0.113,19.37,108.4945,21.03,21.98,28.55,0,110.8,13.23,21.85,285.5
"2009-08-27 01:25:00",1187019,8.65,324.7,0.842,0.109,19.47,108.499,21.04,22,28.32,0,110.8,13.23,21.87,286.7
"2009-08-27 01:25:30",1187020,8.8,325.1,1.372,0.118,19.53,108.499,21.04,22.01,28.13,0,110.8,13.23,21.87,287.1
"2009-08-27 01:26:00",1187021,8.64,326.3,1.224,0.206,19.56,108.4999,21.04,22.01,28.01,0,110.8,13.23,21.87,288.3
"2009-08-27 01:26:30",1187022,8.92,329.5,2.077,0.129,19.75,108.4999,21.04,22.01,27.63,0,110.8,13.23,21.87,291.5
"2009-08-27 01:27:00",1187023,8.92,331.5,1.024,0.122,19.74,108.5002,21.04,22.01,27.02,0,110.8,13.23,21.87,293.5
"2009-08-27 01:27:30",1187024,8.66,329.7,0.492,0.073,19.62,108.5007,21.04,22.01,27.53,0,110.8,13.23,21.87,291.7
"2009-08-27 01:28:00",1187025,8.49,328.3,0.699,0.107,19.46,108.5016,21.05,22.01,27.71,0,110.8,13.23,21.87,290.3
"2009-08-27 01:28:30",1187026,8.5,330.5,1.094,0.111,19.68,108.5033,21.05,22.01,27.77,0,110.8,13.23,21.88,292.5
"2009-08-27 01:29:00",1187027,8.73,331.5,0.953,0.178,19.87,108.5052,21.06,22.02,27.18,0,110.8,13.23,21.88,293.5
"2009-08-27 01:29:30",1187028,8.74,331.8,0.831,0.199,19.79,108.5047,21.05,22.01,27.03,0,110.8,13.23,21.88,293.8
"2009-08-27 01:30:00",1187029,8.87,332.6,1.747,0.168,19.89,108.5052,21.06,22.01,26.9,0,110.8,13.23,21.88,294.6
"2009-08-27 01:30:30",1187030,9.37,333.9,0.937,0.157,19.93,108.5058,21.06,22.03,26.84,0,110.8,13.23,21.88,295.9
"2009-08-27 01:31:00",1187031,9,334.3,1.331,0.255,19.84,108.5069,21.06,22.03,26.89,0,110.8,13.23,21.89,296.3
"2009-08-27 01:31:30",1187032,8.84,333.4,0.968,0.171,19.79,108.5075,21.06,22.02,26.95,0,110.8,13.23,21.89,295.4
"2009-08-27 01:32:00",1187033,8.94,333.9,1.281,0.198,19.8,108.5069,21.06,22.02,27.05,0,110.8,13.24,21.89,295.9
"2009-08-27 01:32:30",1187034,9.11,335.7,0.792,0.075,19.86,108.5072,21.06,22.04,26.93,0,110.8,13.23,21.89,297.7
"2009-08-27 01:33:00",1187035,9.19,336.9,1.543,0.098,20.04,108.5078,21.06,22.02,26.85,0,110.8,13.24,21.89,298.9
"2009-08-27 01:33:30",1187036,8.93,339.5,1.069,0.166,20.18,108.5072,21.06,22.02,26.5,0,110.8,13.24,21.89,301.5
"2009-08-27 01:34:00",1187037,9.02,336.5,1.057,0.094,19.86,108.5078,21.06,22.03,26.62,0,110.8,13.24,21.89,298.5
"2009-08-27 01:34:30",1187038,8.97,339.2,1.144,0.169,20.1,108.5072,21.06,22.03,26.64,0,110.8,13.24,21.89,301.2
"2009-08-27 01:35:00",1187039,8.88,338.1,1.861,0.174,19.99,108.5078,21.06,22.04,26.52,0,110.8,13.24,21.89,300.1
"2009-08-27 01:35:30",1187040,9.04,338.8,1.448,0.11,19.91,108.5078,21.06,22.04,26.61,0,110.8,13.24,21.89,300.8
"2009-08-27 01:36:00",1187041,9.01,339.9,0.667,0.093,19.9,108.5078,21.06,22.05,26.71,0,110.8,13.24,21.89,301.9
"2009-08-27 01:36:30",1187042,8.66,340.4,0.822,0.155,20.04,108.5078,21.06,22.03,26.62,0,110.8,13.24,21.89,302.4
"2009-08-27 01:37:00",1187043,8.62,339.8,0.748,0.154,20.09,108.5078,21.06,22.05,26.4,0,110.8,13.24,21.89,301.8
"2009-08-27 01:37:30",1187044,8.6,337.2,1.143,0.07,19.95,108.5078,21.06,22.04,26.58,0,110.8,13.24,21.89,299.2
"2009-08-27 01:38:00",1187045,8.79,335,0.896,0.119,19.84,108.5078,21.06,22.05,26.81,0,110.8,13.24,21.89,297.0
"2009-08-27 01:38:30",1187046,8.54,334.7,0.662,0.091,19.76,108.5078,21.06,22.05,26.91,0,110.8,13.24,21.89,296.7
"2009-08-27 01:39:00",1187047,8.7,334.9,0.918,0.149,19.77,108.5078,21.06,22.07,27.01,0,110.8,13.24,21.89,296.9
"2009-08-27 01:39:30",1187048,8.73,335.2,0.982,0.201,19.77,108.5078,21.06,22.07,26.96,0,110.8,13.24,21.89,297.2
"2009-08-27 01:40:00",1187049,8.32,332.1,1.39,0.096,19.71,108.5078,21.06,22.06,27.14,0,110.8,13.24,21.89,294.1
"2009-08-27 01:40:30",1187050,8.47,331.9,0.846,0.114,19.77,108.5078,21.06,22.08,27.11,0,110.8,13.24,21.89,293.9
"2009-08-27 01:41:00",1187051,8.65,330.7,1.382,0.095,19.68,108.5078,21.06,22.08,27.25,0,110.8,13.23,21.89,292.7
"2009-08-27 01:41:30",1187052,8.6,332,0.647,0.088,19.76,108.5078,21.06,22.07,27.34,0,110.8,13.23,21.89,294.0
"2009-08-27 01:42:00",1187053,8.74,331.5,0.546,0.071,19.74,108.5078,21.06,22.07,27.44,0,110.8,13.23,21.89,293.5
"2009-08-27 01:42:30",1187054,8.63,333.1,0.735,0.074,19.8,108.5078,21.06,22.08,27.33,0,110.8,13.23,21.89,295.1
"2009-08-27 01:43:00",1187055,8.29,334.9,0.544,0.131,19.87,108.5078,21.06,22.09,27.24,0,110.8,13.23,21.89,296.9
"2009-08-27 01:43:30",1187056,7.813,335.8,0.52,0.163,19.92,108.5078,21.06,22.07,27.01,0,110.8,13.23,21.89,297.8
"2009-08-27 01:44:00",1187057,7.662,336.8,1.197,0.087,19.81,108.5078,21.06,22.08,26.88,0,110.8,13.23,21.89,298.8
"2009-08-27 01:44:30",1187058,8.02,338.7,0.628,0.191,19.83,108.5078,21.06,22.06,26.92,0,110.8,13.23,21.89,300.7
"2009-08-27 01:45:00",1187059,8.14,339.6,0.428,0.206,19.8,108.5078,21.06,22.06,27.17,0,110.8,13.23,21.89,301.6
"2009-08-27 01:45:30",1187060,7.555,339.6,0.43,0.106,19.9,108.5075,21.06,22.07,26.9,0,110.8,13.23,21.89,301.6
"2009-08-27 01:46:00",1187061,7.77,342.2,0.913,0.111,20.06,108.5064,21.06,22.07,26.67,0,110.8,13.23,21.88,304.2
"2009-08-27 01:46:30",1187062,7.803,343.1,1.528,0.191,20.04,108.5033,21.05,22.06,26.43,0,110.8,13.24,21.88,305.1
"2009-08-27 01:47:00",1187063,7.54,340.3,1.034,0.129,19.74,108.499,21.04,22.06,26.81,0,110.8,13.24,21.87,302.3